TimeCDT,TemperatureF,Dew PointF,Humidity,Sea Level PressureIn,VisibilityMPH,Wind Direction,Wind SpeedMPH,Gust SpeedMPH,PrecipitationIn,Events,Conditions,WindDirDegrees,DateUTC
12:58 AM,74.1,70.3,88,30.07,10.0,North,3.5,-,N/A,,Clear,350,2013-06-21 05:58:00
1:58 AM,73.4,70.0,89,30.06,10.0,Variable,3.5,-,N/A,,Clear,0,2013-06-21 06:58:00
2:58 AM,72.7,69.8,91,30.06,10.0,ENE,5.8,-,N/A,,Clear,60,2013-06-21 07:58:00
3:58 AM,72.5,70.2,92,30.07,10.0,NNE,2.3,-,N/A,,Clear,20,2013-06-21 08:58:00
4:58 AM,72.3,70.2,93,30.07,10.0,NNE,3.5,-,N/A,,Clear,20,2013-06-21 09:58:00
5:58 AM,72.0,69.8,93,30.09,10.0,NE,6.9,-,N/A,,Clear,40,2013-06-21 10:58:00
6:58 AM,73.2,71.2,93,30.09,10.0,NE,5.8,-,N/A,,Clear,40,2013-06-21 11:58:00
7:58 AM,76.3,72.5,88,30.11,10.0,NE,3.5,-,N/A,,Clear,40,2013-06-21 12:58:00
8:58 AM,81.1,72.7,75,30.11,10.0,ENE,6.9,-,N/A,,Clear,60,2013-06-21 13:58:00
9:58 AM,83.3,73.0,71,30.12,10.0,ENE,6.9,-,N/A,,Clear,70,2013-06-21 14:58:00
10:58 AM,86.2,73.6,66,30.13,10.0,NE,4.6,-,N/A,,Clear,50,2013-06-21 15:58:00
11:43 AM,84.2,75.2,74,30.12,10.0,South,9.2,-,N/A,,Mostly Cloudy,170,2013-06-21 16:43:00
11:48 AM,84.2,75.2,74,30.12,10.0,SE,11.5,-,N/A,,Mostly Cloudy,140,2013-06-21 16:48:00
11:53 AM,86.0,75.2,70,30.12,10.0,SE,11.5,-,N/A,,Mostly Cloudy,140,2013-06-21 16:53:00
11:58 AM,85.5,74.8,70,30.14,10.0,SSE,11.5,-,N/A,,Mostly Cloudy,150,2013-06-21 16:58:00
12:03 PM,86.0,73.4,66,30.12,10.0,SSE,10.4,-,N/A,,Mostly Cloudy,150,2013-06-21 17:03:00
12:58 PM,84.9,73.8,69,30.13,10.0,South,9.2,-,N/A,,Mostly Cloudy,170,2013-06-21 17:58:00
1:58 PM,86.2,73.6,66,30.12,10.0,SSE,10.4,-,N/A,,Scattered Clouds,150,2013-06-21 18:58:00
2:04 PM,86.0,75.2,70,30.10,10.0,SSE,8.1,-,N/A,Rain,Light Rain,160,2013-06-21 19:04:00
2:14 PM,82.4,75.2,79,30.10,6.0,ESE,9.2,19.6,N/A,Rain-Thunderstorm,Light Rain,120,2013-06-21 19:14:00
2:21 PM,78.8,73.4,83,30.10,7.0,SSE,10.4,19.6,N/A,Rain-Thunderstorm,Light Thunderstorms and Rain,150,2013-06-21 19:21:00
2:36 PM,78.8,69.8,74,30.11,9.0,East,13.8,25.3,N/A,Rain-Thunderstorm,Light Thunderstorms and Rain,100,2013-06-21 19:36:00
2:41 PM,78.8,69.8,74,30.11,9.0,East,17.3,20.7,N/A,Thunderstorm,Thunderstorm,90,2013-06-21 19:41:00
2:43 PM,78.8,69.8,74,30.10,6.0,East,18.4,-,N/A,Rain-Thunderstorm,Thunderstorms and Rain,90,2013-06-21 19:43:00
2:58 PM,77.2,69.4,77,30.11,10.0,East,10.4,-,0.04,Rain-Thunderstorm,Light Thunderstorms and Rain,80,2013-06-21 19:58:00
3:01 PM,77.0,69.8,78,30.10,10.0,East,9.2,-,N/A,Rain-Thunderstorm,Light Rain,90,2013-06-21 20:01:00
3:20 PM,78.8,71.6,78,30.10,10.0,ESE,5.8,-,N/A,Thunderstorm,Partly Cloudy,120,2013-06-21 20:20:00
3:23 PM,78.8,71.6,78,30.10,10.0,East,4.6,-,N/A,Thunderstorm,Scattered Clouds,100,2013-06-21 20:23:00
3:24 PM,78.8,71.6,78,30.10,10.0,East,4.6,-,N/A,Rain-Thunderstorm,Light Rain,80,2013-06-21 20:24:00
3:39 PM,78.8,71.6,78,30.10,10.0,ENE,11.5,-,N/A,,Scattered Clouds,60,2013-06-21 20:39:00
3:58 PM,77.4,71.6,82,30.10,10.0,East,5.8,-,0.00,Thunderstorm,Mostly Cloudy,80,2013-06-21 20:58:00
4:58 PM,79.5,71.1,75,30.08,10.0,Calm,Calm,-,N/A,,Mostly Cloudy,0,2013-06-21 21:58:00
5:58 PM,79.9,71.6,76,30.08,10.0,ENE,2.3,-,N/A,,Scattered Clouds,70,2013-06-21 22:58:00
6:51 PM,82.4,75.2,79,30.08,10.0,ENE,12.7,-,N/A,Thunderstorm,Thunderstorm,70,2013-06-21 23:51:00
6:58 PM,81.7,72.7,74,30.10,10.0,ENE,11.5,18.4,N/A,Thunderstorm,Thunderstorm,70,2013-06-21 23:58:00
7:06 PM,80.6,71.6,74,30.08,10.0,East,8.1,-,N/A,Thunderstorm,Mostly Cloudy,90,2013-06-22 00:06:00
7:58 PM,77.7,70.2,77,30.08,10.0,Calm,Calm,-,N/A,,Mostly Cloudy,0,2013-06-22 00:58:00
8:58 PM,76.1,71.2,85,30.08,10.0,NE,3.5,-,N/A,,Clear,40,2013-06-22 01:58:00
9:58 PM,74.8,70.3,86,30.10,10.0,NE,4.6,-,N/A,,Clear,40,2013-06-22 02:58:00
10:58 PM,74.5,70.7,88,30.09,10.0,ENE,3.5,-,N/A,,Clear,60,2013-06-22 03:58:00
11:58 PM,75.4,71.1,86,30.09,10.0,NNE,4.6,-,N/A,,Clear,30,2013-06-22 04:58:00